When you browse on this site, cookies collect data to enhance your experience and personalize the content and advertising you see.
Visit our Privacy Policy to learn more. By continuing to use the site, you agree to this use of cookies and data.
  • In Österreich
  • Länderverzeichnis
  • Für 7 Tage
  • Wassertemperatur
  • Satellitenkarten
  • Wetterkarte
  • News
  • Widgets
  • user-avatar
    Anmelden

    Stündliche Wetter Korçe

    Heute, 21 Februar, Donnerstag

    Zeit Temperatur Niederschläge Wind Luftdruck Luftfeuchtigkeit
    00:00 +3°C° 0 mm 1 m/S 668 mmHg 79%
    01:00 +3°C° 0 mm 1 m/S 668 mmHg 77%
    02:00 +3°C° 0 mm 1 m/S 668 mmHg 76%
    03:00 +2°C° 0 mm 1 m/S 668 mmHg 75%
    04:00 +2°C° 0 mm 1 m/S 668 mmHg 74%
    05:00 +2°C° 0 mm 1 m/S 669 mmHg 73%
    06:00 +2°C° 0 mm 1 m/S 669 mmHg 73%
    07:00 +1°C° 0 mm 2 m/S 669 mmHg 73%
    08:00 +4°C° 0 mm 2 m/S 670 mmHg 66%
    09:00 +6°C° 0 mm 2 m/S 670 mmHg 58%
    10:00 +8°C° 0 mm 2 m/S 671 mmHg 50%
    11:00 +10°C° 0 mm 1 m/S 671 mmHg 48%
    12:00 +10°C° 0 mm 1 m/S 671 mmHg 45%
    13:00 +11°C° 0 mm 1 m/S 671 mmHg 42%
    14:00 +11°C° 0 mm 1 m/S 671 mmHg 44%
    15:00 +11°C° 0 mm 1 m/S 671 mmHg 46%
    16:00 +10°C° 0 mm 1 m/S 670 mmHg 48%
    17:00 +9°C° 0 mm 1 m/S 670 mmHg 55%
    18:00 +7°C° 0 mm 1 m/S 670 mmHg 63%
    19:00 +5°C° 0 mm 1 m/S 670 mmHg 71%
    20:00 +5°C° 0 mm 1 m/S 670 mmHg 71%
    21:00 +4°C° 0 mm 1 m/S 670 mmHg 72%
    22:00 +4°C° 0 mm 1 m/S 670 mmHg 73%
    23:00 +4°C° 0 mm 1 m/S 670 mmHg 73%

    Morgen, 22 Februar, Freitag

    Zeit Temperatur Niederschläge Wind Luftdruck Luftfeuchtigkeit
    00:00 +3°C° 0 mm 1 m/S 669 mmHg 72%
    01:00 +3°C° 0 mm 1 m/S 669 mmHg 72%
    02:00 +3°C° 0 mm 1 m/S 669 mmHg 72%
    03:00 +2°C° 0 mm 0 m/S 668 mmHg 72%
    04:00 +1°C° 0 mm 0 m/S 668 mmHg 72%
    05:00 +1°C° 0 mm 0 m/S 668 mmHg 73%
    06:00 +2°C° 0 mm 0 m/S 668 mmHg 74%
    07:00 +2°C° 0 mm 0 m/S 668 mmHg 74%
    08:00 +4°C° 0 mm 1 m/S 668 mmHg 66%
    09:00 +5°C° 0 mm 2 m/S 668 mmHg 58%
    10:00 +7°C° 0 mm 2 m/S 669 mmHg 50%
    11:00 +7°C° 0 mm 2 m/S 668 mmHg 50%
    12:00 +7°C° 0 mm 2 m/S 668 mmHg 51%
    13:00 +7°C° 0 mm 3 m/S 667 mmHg 52%
    14:00 +7°C° 0.2 mm 2 m/S 667 mmHg 58%
    15:00 +6°C° 0.2 mm 2 m/S 666 mmHg 63%
    16:00 +5°C° 0.2 mm 2 m/S 665 mmHg 68%
    17:00 +4°C° 0 mm 2 m/S 665 mmHg 74%
    18:00 +3°C° 0 mm 2 m/S 665 mmHg 80%
    19:00 +2°C° 0 mm 2 m/S 665 mmHg 86%
    20:00 +2°C° 0 mm 1 m/S 665 mmHg 87%
    21:00 +2°C° 0 mm 1 m/S 664 mmHg 88%
    22:00 +2°C° 0 mm 1 m/S 664 mmHg 88%
    23:00 +2°C° 0 mm 1 m/S 664 mmHg 87%

    übermorgen, 23 Februar, Samstag

    Zeit Temperatur Niederschläge Wind Luftdruck Luftfeuchtigkeit
    00:00 +2°C° 0 mm 1 m/S 664 mmHg 86%
    01:00 +1°C° 0 mm 2 m/S 664 mmHg 84%
    02:00 +1°C° 0 mm 2 m/S 663 mmHg 84%
    03:00 -1°C° 0 mm 2 m/S 663 mmHg 83%
    04:00 +1°C° 0 mm 1 m/S 663 mmHg 82%
    05:00 -1°C° 0 mm 2 m/S 663 mmHg 82%
    06:00 +1°C° 0 mm 2 m/S 663 mmHg 82%
    07:00 +1°C° 0 mm 2 m/S 664 mmHg 82%
    08:00 0°C° 0 mm 3 m/S 664 mmHg 72%
    09:00 +1°C° 0 mm 3 m/S 664 mmHg 62%
    10:00 +1°C° 0 mm 4 m/S 665 mmHg 51%
    11:00 0°C° 0.1 mm 4 m/S 664 mmHg 52%
    12:00 -1°C° 0.1 mm 5 m/S 664 mmHg 54%
    13:00 -4°C° 0.1 mm 6 m/S 664 mmHg 55%
    14:00 -5°C° 0.6 mm 6 m/S 664 mmHg 60%
    15:00 -6°C° 0.6 mm 6 m/S 664 mmHg 66%
    16:00 -8°C° 0.6 mm 6 m/S 664 mmHg 72%
    17:00 -8°C° 0.1 mm 5 m/S 664 mmHg 68%
    18:00 -8°C° 0.1 mm 5 m/S 665 mmHg 65%
    19:00 -8°C° 0.1 mm 4 m/S 665 mmHg 61%
    20:00 -9°C° 0 mm 4 m/S 665 mmHg 61%
    21:00 -9°C° 0 mm 4 m/S 666 mmHg 60%
    22:00 -10°C° 0 mm 4 m/S 666 mmHg 60%
    23:00 -10°C° 0 mm 4 m/S 666 mmHg 60%

    24 Februar, Sonntag

    Zeit Temperatur Niederschläge Wind Luftdruck Luftfeuchtigkeit
    00:00 -10°C° 0 mm 4 m/S 667 mmHg 61%
    01:00 -10°C° 0 mm 4 m/S 667 mmHg 62%
    02:00 -11°C° 0 mm 4 m/S 667 mmHg 63%
    03:00 -11°C° 0 mm 4 m/S 666 mmHg 63%
    04:00 -11°C° 0 mm 4 m/S 666 mmHg 64%
    05:00 -11°C° 0 mm 4 m/S 666 mmHg 62%
    06:00 -11°C° 0 mm 4 m/S 667 mmHg 61%
    07:00 -11°C° 0 mm 4 m/S 667 mmHg 59%
    08:00 -10°C° 0 mm 4 m/S 667 mmHg 53%
    09:00 -8°C° 0 mm 4 m/S 668 mmHg 47%
    10:00 -7°C° 0 mm 5 m/S 668 mmHg 40%
    11:00 -6°C° 0 mm 5 m/S 668 mmHg 39%
    12:00 -6°C° 0 mm 5 m/S 668 mmHg 37%
    13:00 -5°C° 0 mm 5 m/S 668 mmHg 36%
    14:00 -5°C° 0 mm 5 m/S 668 mmHg 36%
    15:00 -5°C° 0 mm 5 m/S 668 mmHg 36%
    16:00 -5°C° 0 mm 5 m/S 668 mmHg 37%
    17:00 -5°C° 0 mm 4 m/S 668 mmHg 42%
    18:00 -8°C° 0 mm 4 m/S 668 mmHg 46%
    19:00 -8°C° 0 mm 3 m/S 668 mmHg 51%
    20:00 -8°C° 0 mm 3 m/S 669 mmHg 53%
    21:00 -8°C° 0 mm 3 m/S 669 mmHg 55%
    22:00 -8°C° 0 mm 3 m/S 669 mmHg 57%
    23:00 -8°C° 0 mm 3 m/S 669 mmHg 59%

    25 Februar, Montag

    Zeit Temperatur Niederschläge Wind Luftdruck Luftfeuchtigkeit
    00:00 -8°C° 0 mm 3 m/S 668 mmHg 61%
    01:00 -9°C° 0 mm 3 m/S 668 mmHg 63%
    02:00 -9°C° 0 mm 3 m/S 668 mmHg 64%
    03:00 -9°C° 0 mm 3 m/S 667 mmHg 66%
    04:00 -9°C° 0 mm 3 m/S 667 mmHg 67%
    05:00 -9°C° 0 mm 3 m/S 667 mmHg 64%
    06:00 -9°C° 0 mm 3 m/S 666 mmHg 62%
    07:00 -9°C° 0 mm 3 m/S 666 mmHg 60%
    08:00 -7°C° 0 mm 3 m/S 667 mmHg 50%
    09:00 -5°C° 0 mm 3 m/S 667 mmHg 40%
    10:00 -2°C° 0 mm 3 m/S 668 mmHg 30%
    11:00 -2°C° 0 mm 4 m/S 667 mmHg 29%
    12:00 -1°C° 0 mm 4 m/S 667 mmHg 29%
    13:00 0°C° 0 mm 4 m/S 667 mmHg 29%
    14:00 +1°C° 0 mm 3 m/S 667 mmHg 31%
    15:00 +1°C° 0 mm 3 m/S 666 mmHg 34%
    16:00 +1°C° 0 mm 3 m/S 666 mmHg 37%
    17:00 -1°C° 0 mm 3 m/S 666 mmHg 43%
    18:00 -2°C° 0 mm 3 m/S 666 mmHg 49%
    19:00 -4°C° 0 mm 2 m/S 666 mmHg 55%
    20:00 -4°C° 0 mm 2 m/S 666 mmHg 58%
    21:00 -4°C° 0 mm 2 m/S 666 mmHg 60%
    22:00 -4°C° 0 mm 2 m/S 666 mmHg 62%
    23:00 -5°C° 0 mm 2 m/S 666 mmHg 65%

    26 Februar, Dienstag

    Zeit Temperatur Niederschläge Wind Luftdruck Luftfeuchtigkeit
    00:00 -5°C° 0 mm 2 m/S 666 mmHg 68%
    01:00 -5°C° 0 mm 2 m/S 666 mmHg 70%
    02:00 -5°C° 0 mm 2 m/S 666 mmHg 73%
    03:00 -5°C° 0 mm 2 m/S 666 mmHg 76%
    04:00 -4°C° 0 mm 2 m/S 666 mmHg 79%
    05:00 -4°C° 0 mm 2 m/S 666 mmHg 80%
    06:00 -4°C° 0 mm 2 m/S 666 mmHg 80%
    07:00 -4°C° 0 mm 2 m/S 667 mmHg 81%
    08:00 -2°C° 0 mm 2 m/S 667 mmHg 70%
    09:00 +1°C° 0 mm 2 m/S 668 mmHg 60%
    10:00 +3°C° 0 mm 2 m/S 668 mmHg 50%
    11:00 +4°C° 0 mm 2 m/S 668 mmHg 46%
    12:00 +4°C° 0 mm 3 m/S 668 mmHg 43%
    13:00 +5°C° 0 mm 3 m/S 669 mmHg 40%
    14:00 +4°C° 0 mm 3 m/S 668 mmHg 41%
    15:00 +4°C° 0 mm 3 m/S 668 mmHg 42%
    16:00 +5°C° 0 mm 2 m/S 668 mmHg 44%
    17:00 +3°C° 0 mm 2 m/S 668 mmHg 48%
    18:00 +2°C° 0 mm 2 m/S 667 mmHg 53%
    19:00 -1°C° 0 mm 2 m/S 667 mmHg 57%
    20:00 -1°C° 0 mm 2 m/S 667 mmHg 57%
    21:00 -1°C° 0 mm 2 m/S 667 mmHg 57%
    22:00 -1°C° 0 mm 2 m/S 667 mmHg 57%
    23:00 -2°C° 0 mm 2 m/S 667 mmHg 56%
    Mehr zeigen